SCP
1 1 1 1 2 2 2 2 2 2 2 1 1 2 2 2 1 1 2 2 2 1 1 2 2 2 2 1 1 1 1 1 1 1 1 1 1 1 1 2 3 2 2
1 1 1 1 2 2 2 3 3 3 2 2 1 1 1 1 1 1 1 1 1 1 1 2 2 2 2 1 1 1 1 1 1 1 1 1 1 1 1 1 2 3 3
1 1 1 1 1 2 3 3 3 3 3 2 2 1 1 1 1 0 1 1 1 1 1 2 2 2 1 1 1 1 1 1 1 1 1 1 1 1 1 1 2 2 3
2 1 1 1 2 2 3 3 3 3 3 3 2 1 1 0 0 0 0 1 1 1 1 2 2 1 1 1 1 1 1 1 1 1 1 1 1 1 1 1 1 2 2
2 2 2 2 2 2 2 3 3 3 3 3 2 2 1 1 1 1 1 1 1 1 1 1 1 1 2 2 2 1 1 1 1 1 1 1 1 1 1 1 1 1 1
2 2 2 2 2 2 3 3 4 4 3 3 3 2 2 2 2 1 1 1 1 1 1 1 1 2 2 2 2 3 2 2 2 2 2 2 1 1 1 1 2 1 1
2 2 2 3 3 3 3 3 4 4 4 3 3 3 3 3 2 2 2 1 1 1 1 2 2 2 3 3 4 4 4 4 4 4 3 3 2 2 2 2 2 2 1
2 2 3 3 3 3 3 4 4 5 5 4 3 3 4 3 3 2 2 1 1 1 2 2 2 3 4 5 6 6 7 7 7 7 6 5 4 2 2 2 2 2 2
3 3 3 3 2 2 3 4 5 5 5 4 3 4 5 4 3 3 2 2 1 2 2 2 2 3 4 5 7 8 8 9 10 9 9 8 6 4 3 2 2 2 1
3 3 3 2 2 2 3 4 5 5 5 4 4 4 5 5 4 3 2 2 2 2 2 2 2 3 4 5 6 7 8 9 10 10 10 9 7 5 4 3 2 1 1
2 2 2 2 2 2 3 4 5 5 5 4 4 4 4 4 3 3 2 2 2 2 2 2 2 3 3 4 5 5 6 7 8 8 8 7 6 5 4 4 2 2 2
2 2 2 2 2 2 2 3 4 4 5 5 5 4 4 3 3 3 3 3 3 3 2 2 2 3 3 3 4 4 5 5 5 6 6 6 5 5 4 4 3 2 2
2 2 3 3 2 2 2 3 3 4 5 5 5 5 5 4 3 3 3 3 3 3 2 2 2 3 3 3 4 4 4 5 5 5 5 5 5 5 5 4 4 3 3
2 2 3 3 3 3 2 3 3 4 4 5 6 6 6 5 4 3 3 3 3 3 3 2 2 2 3 3 3 4 4 4 5 5 4 4 5 5 5 4 4 4 4
3 3 3 3 3 3 3 3 3 3 4 5 6 7 7 6 5 4 4 4 4 4 4 3 3 3 3 3 3 3 3 4 4 4 4 4 4 4 4 4 4 4 5
3 3 4 4 4 3 3 4 4 5 6 6 6 7 7 6 5 5 4 4 4 4 4 4 4 3 3 2 2 2 2 3 4 4 5 5 4 4 4 3 3 3 3
3 4 5 5 4 3 4 5 6 7 7 7 6 7 8 7 7 5 5 4 4 4 4 4 5 5 4 3 2 2 2 3 4 5 6 6 5 5 4 4 3 3 3
3 4 5 6 6 5 6 7 8 8 7 7 7 8 9 9 8 7 6 5 4 4 4 4 4 5 5 3 2 2 2 3 4 5 6 5 5 5 5 4 4 4 4
4 4 5 7 8 9 10 10 10 9 8 7 8 9 10 10 10 8 7 6 5 5 5 4 3 3 3 3 2 2 2 3 4 5 5 4 4 4 4 4 4 5 5
4 4 5 7 10 12 14 16 16 14 12 10 8 8 8 9 9 9 8 7 7 6 6 5 3 3 2 2 2 2 3 5 5 5 4 3 3 3 3 3 4 5 5
5 5 5 7 10 11 15 18 20 19 15 11 8 7 7 7 7 8 9 8 8 7 6 4 3 3 3 2 2 3 4 6 7 6 5 4 2 2 2 3 4 5 4
6 6 6 7 8 9 11 15 18 18 14 10 7 7 7 6 6 8 9 9 8 6 5 4 4 3 3 3 3 3 3 5 7 7 5 4 2 1 1 2 3 4 3
6 7 8 8 8 8 8 10 12 13 11 9 8 7 7 7 7 7 7 7 6 5 5 5 4 3 4 4 4 4 3 3 5 6 5 4 3 2 2 2 2 3 4
6 7 8 8 8 7 7 6 6 8 9 9 8 7 7 8 7 6 6 5 5 4 4 4 3 3 3 4 5 5 4 3 4 5 6 6 5 5 5 5 5 5 5
5 6 7 7 7 6 5 5 4 5 7 8 8 7 7 7 7 5 4 4 3 3 3 3 3 3 3 4 4 4 5 5 5 7 9 10 9 8 8 8 8 7 7
4 5 6 6 5 5 5 4 4 5 6 7 8 7 6 6 6 4 3 3 2 2 2 2 3 4 4 3 3 4 5 5 6 9 12 12 11 10 10 10 9 9 8
Wind_Speed
8 8 8 8 8 7 7 6 6 5 4 3 3 3 2 2 1 1 2 1 0 0 1 1 1 1 0 0 0 1 0 0 1 1 1 1 2 1 1 1 2 1 1
9 9 9 9 8 8 7 7 7 6 6 3 2 1 1 1 1 1 1 1 1 2 2 1 2 1 1 1 1 1 2 1 1 2 2 1 3 2 1 1 1 2 1
10 11 10 10 9 9 8 7 7 6 6 5 4 3 2 2 2 2 2 1 2 2 2 2 2 1 2 1 2 2 2 2 1 2 3 3 2 1 2 1 1 1 1
10 11 11 11 10 9 8 8 7 7 6 6 5 5 3 3 2 2 1 1 2 2 2 2 2 2 2 1 3 1 2 3 2 1 1 3 3 3 1 1 0 1 1
10 11 12 11 10 10 9 8 8 7 7 6 6 5 5 3 2 2 2 2 2 2 2 2 2 2 2 2 3 2 3 3 3 2 2 2 2 4 4 3 2 1 1
10 10 11 10 10 9 9 9 8 8 7 7 7 6 5 4 3 3 2 2 2 2 2 3 2 3 2 2 3 3 4 4 3 3 3 3 2 3 3 3 3 2 1
10 10 10 11 10 11 10 9 9 9 8 8 7 7 6 6 5 4 3 3 2 2 2 2 2 2 2 3 3 3 3 3 3 4 3 3 3 3 3 4 3 3 2
10 10 11 11 10 11 10 10 9 9 9 8 7 7 7 5 4 5 4 3 3 2 1 2 2 2 3 3 2 3 3 2 3 3 3 3 3 3 3 3 3 4 3
9 10 11 11 11 10 10 10 10 9 9 8 8 7 7 6 5 5 5 4 3 2 2 2 2 2 2 2 3 2 2 2 3 3 3 3 2 3 2 3 4 4 4
8 9 9 10 10 10 10 10 9 9 9 8 7 6 7 7 6 5 5 3 3 2 3 3 3 3 3 3 3 3 2 2 2 2 2 3 3 2 2 3 3 3 4
7 8 8 9 9 9 9 9 9 9 8 7 7 6 6 6 6 6 5 5 4 4 3 3 3 3 3 3 3 3 2 3 3 3 2 3 3 3 2 3 3 3 3
6 7 7 8 8 9 9 8 8 8 7 6 6 6 5 5 6 6 5 5 5 4 4 3 3 3 3 3 3 3 2 3 3 3 3 3 2 3 3 2 3 3 3
5 6 6 7 7 8 8 8 7 7 7 6 6 6 6 6 5 5 5 5 5 4 4 3 3 3 3 3 3 3 3 3 3 3 3 3 2 3 2 3 3 3 2
5 6 6 6 7 7 7 7 7 7 6 6 6 6 6 5 5 5 5 5 5 5 4 3 3 3 3 3 2 3 3 3 2 2 2 3 2 3 3 3 3 3 3
5 6 6 6 6 7 7 7 7 6 6 6 6 6 5 5 5 5 5 5 5 5 4 3 3 3 3 2 2 3 3 3 3 3 3 2 1 2 3 3 2 3 3
4 5 6 6 6 6 7 7 6 6 7 7 6 6 5 5 5 5 5 5 4 4 4 4 3 3 2 1 1 3 3 3 3 3 3 3 2 2 2 2 2 3 4
3 3 4 5 5 6 6 6 6 6 6 6 6 6 6 5 5 5 5 5 4 4 4 4 3 3 2 1 1 3 4 3 3 3 3 3 1 2 2 3 4 3 3
1 2 3 3 4 5 5 5 5 6 6 6 5 5 6 6 5 5 5 5 4 4 3 3 3 3 2 3 2 3 4 4 3 3 3 3 2 2 2 3 3 3 3
1 1 2 2 3 4 5 5 5 5 5 5 5 5 5 5 5 5 5 4 4 3 3 3 3 3 2 3 2 4 4 3 4 3 3 3 3 0 2 4 4 4 3
2 0 0 1 3 3 5 6 5 5 5 4 4 4 5 5 5 5 5 4 4 4 3 3 3 3 3 3 3 4 4 3 3 3 3 2 2 1 3 4 4 5 4
2 1 1 2 2 3 5 5 5 4 4 4 4 4 5 5 5 4 4 4 4 4 4 3 3 4 3 4 4 4 4 3 4 3 3 1 3 3 4 6 5 5 6
2 1 1 1 2 3 4 4 4 4 4 4 4 4 4 4 4 4 4 4 4 4 4 4 4 3 3 3 4 5 5 5 4 4 3 1 2 4 6 5 4 6 6
3 2 1 1 1 3 4 5 4 4 4 4 5 4 4 4 4 4 5 4 4 4 4 4 4 3 3 3 4 6 6 6 4 3 2 2 3 5 5 6 6 6 5
3 2 1 0 0 1 3 4 3 4 5 5 5 5 5 5 4 4 4 4 4 4 4 4 4 3 3 3 3 3 4 5 5 4 3 5 6 6 4 4 5 4 3
4 3 2 2 2 2 3 3 3 4 4 4 4 5 5 4 4 4 3 5 4 3 4 4 4 4 4 2 1 3 3 3 2 3 3 3 3 3 2 2 2 2 2
4 4 4 3 3 3 3 3 3 4 4 5 4 4 3 3 4 3 3 1 2 2 3 3 4 3 1 1 1 2 3 3 3 4 4 3 3 2 2 2 2 2 2
Wind_Direction
180 178 180 180 177 178 178 185 187 178 187 189 194 182 176 177 166 165 136 180 231 202 255 297 147 253 180 292 275 297 204 254 303 266 225 195 199 228 250 265 294 286 281
178 177 182 184 186 185 188 190 193 189 195 189 201 200 187 191 174 165 145 218 232 247 222 230 251 221 207 214 244 261 294 296 263 300 290 252 183 179 197 248 261 297 285
184 181 186 190 190 190 193 195 196 192 199 192 198 190 186 208 181 187 185 209 238 247 272 245 265 265 252 214 250 254 273 294 283 306 308 310 348 329 165 206 261 286 291
190 187 186 190 193 192 190 193 194 197 198 198 207 210 209 207 198 221 191 215 240 257 245 245 249 267 282 264 252 236 269 271 284 240 261 300 317 296 292 217 218 259 272
191 188 188 189 193 192 190 188 190 194 195 200 201 212 219 211 202 213 195 239 229 237 234 231 233 244 259 275 291 274 268 267 277 285 272 261 244 258 278 293 298 281 289
189 189 188 187 192 191 191 189 186 190 193 198 204 213 221 225 226 230 224 229 214 214 212 229 233 242 259 254 265 270 259 269 282 285 283 276 278 278 281 284 284 297 306
188 188 189 187 191 191 191 191 187 191 195 198 203 209 215 219 222 233 223 242 235 216 202 240 238 249 250 258 268 259 277 267 267 268 276 286 285 287 283 282 291 295 293
189 190 190 189 190 190 190 190 189 194 197 200 204 210 214 220 222 221 244 237 255 256 224 236 238 246 249 250 249 263 258 261 265 269 277 276 275 282 279 278 284 284 277
188 190 190 189 190 189 188 190 189 193 197 200 203 206 211 222 229 222 228 239 241 240 216 230 232 238 242 254 258 269 286 280 268 264 250 263 275 265 276 276 274 283 291
186 187 188 189 189 189 187 191 189 191 197 200 204 204 208 213 221 228 225 233 235 242 235 229 227 230 234 235 245 250 244 259 269 281 298 283 272 274 261 269 277 280 286
184 184 185 185 185 187 186 187 191 190 194 202 204 211 206 208 212 217 218 216 220 220 222 224 225 226 231 237 243 259 250 253 265 272 272 278 293 283 276 268 269 272 274
184 181 180 179 182 186 189 187 191 191 193 195 199 203 205 205 208 209 213 215 214 213 210 215 221 227 227 229 240 254 256 255 262 273 276 278 276 275 277 276 268 268 267
186 176 174 175 181 183 185 186 189 191 192 190 194 196 201 203 208 210 206 207 208 210 210 211 224 236 239 232 238 251 258 258 260 264 268 273 277 274 279 278 277 275 266
181 177 172 174 178 181 183 186 189 191 190 190 194 193 197 200 204 205 201 200 203 205 203 208 221 231 239 239 240 238 251 258 258 263 268 268 268 272 272 264 271 274 271
180 177 177 178 179 181 184 187 188 186 187 188 194 194 195 194 197 198 198 197 203 204 201 206 214 225 228 238 243 236 236 242 246 248 253 260 302 327 299 299 291 280 268
190 184 180 181 183 184 184 184 185 185 186 190 192 189 192 192 193 196 192 192 197 202 202 208 214 223 237 60 307 270 249 246 243 246 251 236 216 223 206 244 287 295 279
199 197 199 193 188 188 186 184 180 181 186 191 190 189 193 196 197 197 189 191 194 195 202 211 214 214 194 155 200 264 252 245 252 256 261 266 237 233 233 213 221 234 248
230 215 213 199 192 184 180 182 174 175 183 189 191 190 192 193 192 193 190 192 196 198 204 209 213 216 195 155 182 239 238 248 252 256 262 267 263 271 280 260 256 257 248
289 256 228 197 183 176 170 169 173 174 179 188 195 196 196 194 192 193 193 192 194 199 207 210 213 215 195 157 191 240 235 236 247 253 254 259 255 303 291 263 263 263 257
353 328 147 149 160 167 167 171 175 174 182 187 193 194 197 201 201 194 192 190 194 204 212 209 216 214 211 177 191 242 246 242 245 242 236 232 253 253 258 257 262 267 273
10 24 99 130 150 159 164 173 175 185 191 187 188 191 196 201 197 189 190 193 198 202 213 212 218 218 215 188 193 226 253 255 254 252 244 212 158 234 254 260 263 270 278
10 17 79 111 148 164 170 180 189 192 190 186 186 189 192 202 189 184 191 199 201 202 207 212 225 220 210 206 199 210 237 274 258 261 268 261 169 228 244 253 266 267 267
360 356 44 97 145 175 187 193 196 190 185 186 185 186 189 196 197 193 193 200 205 216 216 218 227 229 223 198 189 201 221 246 256 274 306 293 234 241 235 235 244 249 252
348 346 351 11 89 205 214 214 203 188 187 190 191 189 191 196 197 202 202 210 219 223 225 228 231 232 230 229 213 218 222 225 235 252 241 222 225 241 259 238 226 240 262
340 336 325 315 308 270 235 228 214 196 198 200 203 204 199 194 200 209 216 219 220 229 236 241 242 245 246 246 279 255 250 257 266 270 251 245 237 242 245 252 254 258 257
331 323 314 310 310 299 260 238 215 205 209 211 211 214 213 201 210 209 211 127 206 163 203 236 255 256 251 117 219 262 274 270 255 253 251 256 260 260 261 261 255 247 254